Notices

What's New in latest Release from April 7th, 2021:

- Updated Glossary, including Speed of Maximum Gust, and Total Hourly Precipitation

- Updated national and regional climate services offices contacts and prices information

- Addition of station inventory lists for 1981-2010, 1971-2000, and 1961-1990 Normals.

If you haven't already, please take our survey and provide feedback about our website: https://eccc.sondage-survey.ca/f/LanguageSelection.aspx?s=442ca660-fcf1-47c0-95a9-59707d6fd709

Hourly Data Report for October 09, 2015

IQALUIT CLIMATE
NUNAVUT

63°44'50.000" N
68°32'40.000" W
33.50 m
2402592
71321
XFB

Download Data

Hourly Data (October 2015)
Hourly Data Report for October 9, 2015
TIME
LST
Temp Definition
°C
Dew Point Definition
°C
Rel Hum Definition
%
Precip. Amount Definition
mm

Wind Dir Definition
10's deg

Wind Spd Definition
km/h
Visibility Definition
km
Stn Press Definition
kPa
Hmdx Definition


Wind Chill Definition


Weather Definition


00:00 -2.9 -5.9 80 0.0 34 14   100.16   -8 LegendNANA
01:00 -3.1 -6.3 78 0.0 2 11   100.14   -7 LegendNANA
02:00 -3.2 -6.3 79 0.0 2 9   100.12   -7 LegendNANA
03:00 -3.7 -6.7 79 0.0 5 15   100.10   -9 LegendNANA
04:00 -4.4 -7.2 81 0.0 5 15   100.09   -10 LegendNANA
05:00 -6.3 -8.3 86 0.0 36 12   100.06   -11 LegendNANA
06:00 -7.3 -9.8 82 0.0 35 13   100.03   -13 LegendNANA
07:00 -7.6 -9.8 84 0.0 32 14   99.98   -14 LegendNANA
08:00 -6.2 -9.5 78 0.0 34 6   99.93   -9 LegendNANA
09:00 -5.0 -8.5 77 0.0 32 5   99.88   -7 LegendNANA
10:00 -4.5 -8.3 74 0.0 32 4   99.83   -6 LegendNANA
11:00 -3.9 -7.8 74 0.0 30 3   99.81   -5 LegendNANA
12:00 -3.1 -7.2 73 0.0 25 3   99.77   -4 LegendNANA
13:00 -3.0 -6.7 76 0.0 29 3   99.74   -4 LegendNANA
14:00 -3.0 -6.3 78 0.0 28 5   99.70   -5 LegendNANA
15:00 -2.6 -5.7 79 0.0 30 5   99.62   -5 LegendNANA
16:00 -2.7 -5.0 85 0.0 32 4   99.58   -4 LegendNANA
17:00 -2.8 -4.5 88 0.0 32 7   99.53   -6 LegendNANA
18:00 -2.2 -4.3 85 0.0 3 7   99.48   -5 LegendNANA
19:00 -2.4 -4.2 88 0.0 33 5   99.43   -4 LegendNANA
20:00 -2.3 -4.6 84 0.0 33 5   99.36   -4 LegendNANA
21:00 -2.3 -4.6 84 0.0 34 5   99.29   -4 LegendNANA
22:00 -2.2 -4.4 85 0.0 33 6   99.23   -5 LegendNANA
23:00 -2.0 -4.0 86 0.0 33 10   99.17   -6 LegendNANA

Notes on Data Quality.

Legend

  • E = Estimated
  • M = Missing
  • NA = Not Available*
  • [empty] = Indicates an unobserved value
Date modified: